Tracking 35275 objects as of 8-Sep-2026
HD Live streaming from Space Station
objects crossing your sky now

SL-3 R/B

Track SL-3 R/B now!
10-day predictions


NORAD ID: 11963
Int'l Code: 1980-073B
Launch date: September 9, 1980
Source: Commonwealth of Independent States (former USSR) (CIS)
Launch site: PLESETSK MISSILE AND SPACE COMPLEX (PKMTR)

Note: This is a ROCKET BODY
Your satellite tracking list
Your tracking list is empty




NASA's NSSDC Master Catalog

Two Line Element Set (TLE):
1 11963U 80073B   26250.99257765  .00000002  00000-0 -52460-5 0  9998
2 11963  81.2735  97.3429 0074128 256.1660 103.1255 14.10185307365089
Source of the keplerian elements: AFSPC